User: anonymous   Login
Location: Unspecified
(0.0000°N, 0.0000°E)
Time: 07:52:31
(UTC+00:00)
Language:

PAYLOAD C - Orbit

View from above orbital plane
View from above orbital plane
View from above satellite
View from above satellite

Ground track
Ground track

The orbit data is extracted from the following two-line orbital elements,

1 27057U 01058C   17328.38503681 -.00000013 +00000-0 -13253-3 0  9993
2 27057 082.5472 055.7853 0000834 032.3641 327.7501 12.61544473732585
Epoch (UTC): 24 November 2017 09:14:27
Eccentricity: 0.0000834
inclination: 82.5472°
perigee height: 1416 km
apogee height: 1417 km
right ascension of ascending node: 55.7853°
argument of perigee: 32.3641°
revolutions per day: 12.61544473
mean anomaly at epoch: 327.7501°
orbit number at epoch: 73258

The dashed part of the orbit path shows where the satellite is in the earth's shadow,  

DLR